This is the latest recevied weather packets stored in our database for station/object IN3XSV. If no packets are shown the sender has not sent any weather packets the latest 10 day(s).
| Time | Temp. | Humidity | Pressure | Rain* | Wind** | Luminosity | Snow |
|---|---|---|---|---|---|---|---|
| 1777765127 | 10.56° C | 66% | 1014.6 hPa | 0 mm | - | - | - |
| 1777764827 | 10.56° C | 66% | 1014.7 hPa | 0 mm | - | - | - |
| 1777764527 | 10.56° C | 66% | 1014.7 hPa | 0 mm | - | - | - |
| 1777764227 | 10.56° C | 66% | 1014.8 hPa | 0 mm | - | - | - |
| 1777763927 | 11.11° C | 66% | 1014.8 hPa | 0 mm | - | - | - |
| 1777763627 | 10.56° C | 66% | 1014.8 hPa | 0 mm | - | - | - |
| 1777763327 | 10.56° C | 66% | 1014.8 hPa | 0 mm | - | - | - |
| 1777763027 | 10.56° C | 66% | 1014.9 hPa | 0 mm | - | - | - |
| 1777762727 | 10.56° C | 66% | 1014.8 hPa | 0 mm | - | - | - |
| 1777762427 | 10.56° C | 65% | 1014.9 hPa | 0 mm | - | - | - |
| 1777762127 | 11.11° C | 65% | 1014.8 hPa | 0 mm | - | - | - |
| 1777761827 | 11.11° C | 65% | 1014.7 hPa | 0 mm | - | - | - |
| 1777761527 | 11.11° C | 63% | 1014.7 hPa | 0 mm | - | - | - |
| 1777761227 | 11.11° C | 63% | 1014.9 hPa | 0 mm | - | - | - |
| 1777760927 | 11.11° C | 63% | 1014.8 hPa | 0 mm | - | - | - |
| 1777760627 | 11.67° C | 64% | 1014.7 hPa | 0 mm | - | - | - |
| 1777760327 | 11.67° C | 63% | 1014.8 hPa | 0 mm | - | - | - |
| 1777760027 | 11.67° C | 62% | 1015.1 hPa | 0 mm | - | - | - |
| 1777759727 | 11.67° C | 61% | 1015.1 hPa | 0 mm | - | - | - |
| 1777759427 | 12.22° C | 61% | 1015.1 hPa | 0 mm | - | - | - |
| 1777759127 | 12.22° C | 61% | 1015.1 hPa | 0 mm | - | - | - |
| 1777758827 | 12.22° C | 61% | 1014.8 hPa | 0 mm | - | - | - |
| 1777758527 | 12.22° C | 63% | 1014.8 hPa | 0 mm | - | - | - |
| 1777758227 | 12.22° C | 62% | 1014.8 hPa | 0 mm | - | - | - |
| 1777757927 | 12.78° C | 60% | 1014.7 hPa | 0 mm | - | - | - |
* Rain latest hour (hover to see other rain measurements)
** Current wind speed in m/s (hover to see current wind gust speed)